Scottsdale, AZ

10:10 AM MST on July 28, 2017 (GMT -0700)
Scottsdale

Weather History for KSDL - March, 2013

Change the Weather History Date:

Wednesday, March 6, 2013

  Actual Average Record
Temperature  
Mean Temperature 66 °F -  
Max Temperature 77 °F 69 °F 82 °F (2012)
Min Temperature 54 °F 47 °F 42 °F (2002)
Growing Degree Days 16 (Base 50)    
Moisture  
Dew Point 33 °F    
Average Humidity 33    
Maximum Humidity 53    
Minimum Humidity 16    
Precipitation  
Precipitation 0.00 in - - ()
Sea Level Pressure  
Sea Level Pressure 29.91 in    
Wind  
Wind Speed 1 mph (SSE)    
Max Wind Speed 8 mph    
Max Gust Speed -    
Visibility 10 miles    
Events      
Averages and records for this station are not official NWS values.
T = Trace of Precipitation, MM = Missing Value Source: NWS Daily Summary

Daily Weather History Graph

Daily Weather History Graph

Search for Another Location

Airport or City:

Trip Planner

Search our weather history database for the weather conditions in past years. The results will help you decide how hot, cold, wet, or windy it might be!

Date:

Astronomy

Mar. 06, 2013 Rise Set
Actual Time 6:49 AM MST 6:28 PM MST
Civil Twilight 6:24 AM MST 6:53 PM MST
Nautical Twilight 5:55 AM MST 7:22 PM MST
Astronomical Twilight 5:26 AM MST 7:51 PM MST
Moon 2:49 AM MST (3/6) 1:26 PM MST (3/6)
Length of Visible Light 12h 29m
Length of Day
11h 39m
Waning Crescent, 29% of the Moon is Illuminated
Mar 6
Waning Crescent
Mar 11
New
Mar 19
First Quarter
Mar 27
Full
Apr 2
Last Quarter

Hourly Weather History & Observations

Time (MST) Temp. Dew Point Humidity Pressure Visibility Wind Dir Wind Speed Gust Speed Precip Events Conditions
12:53 AM 57.9 °F 36.0 °F 44% 29.95 in 10.0 mi Calm Calm - N/A   Clear
1:53 AM 57.0 °F 37.0 °F 47% 29.95 in 10.0 mi Calm Calm - N/A   Clear
2:53 AM 57.0 °F 35.1 °F 44% 29.94 in 10.0 mi Calm Calm - N/A   Clear
3:53 AM 55.0 °F 37.0 °F 51% 29.93 in 10.0 mi Calm Calm - N/A   Clear
4:53 AM 57.0 °F 36.0 °F 45% 29.93 in 10.0 mi Calm Calm - N/A   Clear
5:53 AM 55.0 °F 37.0 °F 51% 29.95 in 10.0 mi Calm Calm - N/A   Clear
6:53 AM 54.0 °F 37.0 °F 53% 29.97 in 10.0 mi Calm Calm - N/A   Clear
7:53 AM 57.0 °F 37.9 °F 49% 29.98 in 10.0 mi Calm Calm - N/A   Clear
8:53 AM 62.1 °F 36.0 °F 38% 29.99 in 10.0 mi South 3.5 mph - N/A   Clear
9:53 AM 66.9 °F 35.1 °F 31% 30.00 in 10.0 mi SE 4.6 mph - N/A   Clear
10:53 AM 70.0 °F 33.1 °F 26% 29.98 in 10.0 mi SSE 8.1 mph - N/A   Clear
11:53 AM 72.0 °F 32.0 °F 23% 29.97 in 10.0 mi SSE 5.8 mph - N/A   Clear
12:53 PM 73.9 °F 30.9 °F 21% 29.94 in 10.0 mi South 6.9 mph - N/A   Clear
1:53 PM 75.0 °F 30.0 °F 19% 29.91 in 10.0 mi Calm Calm - N/A   Clear
2:53 PM 75.9 °F 28.9 °F 18% 29.89 in 10.0 mi Calm Calm - N/A   Clear
3:53 PM 77.0 °F 27.0 °F 16% 29.87 in 10.0 mi Variable 5.8 mph - N/A   Clear
4:53 PM 77.0 °F 27.0 °F 16% 29.85 in 10.0 mi SSE 3.5 mph - N/A   Clear
5:53 PM 75.9 °F 27.0 °F 16% 29.84 in 10.0 mi Calm Calm - N/A   Clear
6:53 PM 73.9 °F 28.0 °F 18% 29.85 in 10.0 mi Calm Calm - N/A   Clear
7:53 PM 71.1 °F 30.0 °F 22% 29.85 in 10.0 mi Calm Calm - N/A   Clear
8:53 PM 66.9 °F 33.1 °F 28% 29.85 in 10.0 mi Calm Calm - N/A   Clear
9:53 PM 64.9 °F 33.1 °F 31% 29.85 in 10.0 mi Calm Calm - N/A   Clear
10:53 PM 63.0 °F 32.0 °F 31% 29.85 in 10.0 mi Calm Calm - N/A   Clear
11:53 PM 59.0 °F 36.0 °F 42% 29.85 in 10.0 mi Calm Calm - N/A   Clear